This demonstration page uses our WeatherBlox Daily Observations layout. Learn more.

Left ArrowRight Arrow

44.8408, -93.29828

Hourly Observations for August 5, 2019

Temp ( °F °C ) Dew Point ( °F °C ) Humidity (%) Winds ( mph kmh ) Pressure ( in mb ) Visibility ( mi km ) Precip ( " mm )
12:53 am 00:53 Mostly Clear 77 25 67 19.4 71 71 SE 6 9 29.94 1014 10 16 0.00 0.00
1:53 am 01:53 Mostly Clear 74 23.3 67 19.4 79 79 SSE 5 7 29.92 1013 10 16 0.00 0.00
2:53 am 02:53 Mostly Clear 75 23.9 67 19.4 76 76 Calm 29.91 1013 10 16 0.00 0.00
3:53 am 03:53 Mostly Clear 73 22.8 67 19.4 81 81 SSE 3 6 29.90 1013 10 16 0.00 0.00
4:53 am 04:53 Clear 72 22.2 67 19.4 84 84 SSE 3 6 29.89 1012 10 16 0.00 0.00
5:53 am 05:53 Mostly Clear 71 21.7 67 19.4 87 87 SE 8 13 29.88 1012 10 16 0.00 0.00
6:53 am 06:53 Partly Cloudy 71 21.7 67 19.4 87 87 SE 5 7 29.89 1012 10 16 0.00 0.00
7:53 am 07:53 Partly Cloudy 75 23.9 68 20 79 79 SW 7 11 29.87 1012 10 16 0.00 0.00
8:53 am 08:53 Mostly Cloudy 76 24.4 69 20.6 79 79 S 7 11 29.85 1011 9 14 0.00 0.00
9:53 am 09:53 Mostly Cloudy 79 26.1 70 21.1 74 74 WSW 8 13 29.87 1012 10 16 0.00 0.00
10:04 am 10:04 Cloudy 80 26.7 70 21.1 71 71 W 9 15 29.85 1011 10 16 0.00 0.00
10:53 am 10:53 Mostly Cloudy 81 27.2 71 21.7 72 72 SSW 7 11 29.84 1011 9 14 0.00 0.00
11:53 am 11:53 Mostly Cloudy 84 28.9 72 22.2 67 67 WSW 8 13 29.83 1010 10 16 0.00 0.00
12:11 pm 12:11 Mostly Cloudy 84 28.9 71 21.7 65 65 SW 7 11 29.79 1009 10 16 0.00 0.00
12:53 pm 12:53 Cloudy with Nearby Thunderstorms 83 28.3 71 21.7 67 67 WSW 9 15 29.83 1010 10 16 0.00 0.00
1:01 pm 13:01 Cloudy with Nearby Thunderstorms 82 27.8 72 22.2 72 72 SW 12 19 29.80 1009 8 13 0.00 0.00
1:21 pm 13:21 Cloudy with Thunderstorms 80 26.7 73 22.8 79 79 VRB 3 6 29.77 1008 8 13 0.00 0.00
1:37 pm 13:37 Cloudy with Nearby Thunderstorms 79 26.1 74 23.3 85 85 SW 10 17 29.77 1008 9 14 0.02 0.51
1:53 pm 13:53 Mostly Cloudy 80 26.7 74 23.3 82 82 WSW 7 11 29.80 1009 10 16 0.02 0.51
2:53 pm 14:53 Mostly Cloudy 84 28.9 74 23.3 72 72 SW 6 9 29.77 1008 10 16 0.00 0.00
3:53 pm 15:53 Mostly Cloudy 85 29.4 74 23.3 70 70 NW 8 13 29.76 1008 10 16 0.00 0.00
4:20 pm 16:20 Mostly Cloudy with Nearby Thunderstorms 83 28.3 72 22.2 70 70 NNW 10 17 29.71 1006 10 16 0.00 0.00
4:40 pm 16:40 Mostly Cloudy with Thunderstorms 81 27.2 73 22.8 77 77 NW 12 19 29.73 1007 8 13 0.00 0.00
4:53 pm 16:53 Cloudy with Thunderstorms 79 26.1 73 22.8 82 82 NW 13 20 29.78 1008 4 6 0.03 0.76
5:32 pm 17:32 Mostly Cloudy with Nearby Thunderstorms 73 22.8 70 21.1 90 90 NW 9 15 29.74 1007 8 13 0.15 3.81
5:43 pm 17:43 Mostly Cloudy 73 22.8 70 21.1 90 90 NW 9 15 29.73 1007 10 16 0.15 3.81
5:53 pm 17:53 Mostly Cloudy 75 23.9 70 21.1 84 84 WNW 6 9 29.75 1007 10 16 0.15 3.81
6:53 pm 18:53 Mostly Cloudy 79 26.1 69 20.6 72 72 N 7 11 29.77 1008 10 16 0.00 0.00
7:53 pm 19:53 Mostly Cloudy 78 25.6 68 20 71 71 N 7 11 29.77 1008 10 16 0.00 0.00
8:53 pm 20:53 Mostly Cloudy 76 24.4 61 16.1 60 60 VRB 5 7 29.81 1009 10 16 0.00 0.00
9:53 pm 21:53 Mostly Cloudy 76 24.4 61 16.1 60 60 Calm 29.81 1010 10 16 0.00 0.00
10:53 pm 22:53 Partly Cloudy 72 22.2 64 17.8 76 76 W 3 6 29.82 1010 10 16 0.00 0.00
11:53 pm 23:53 Partly Cloudy 71 21.7 65 18.3 81 81 NW 3 6 29.82 1010 10 16 0.00 0.00

Powered by AerisWeather